Time,TemperatureF,DewpointF,PressureIn,WindDirection,WindDirectionDegrees,WindSpeedMPH,WindSpeedGustMPH,Humidity,HourlyPrecipIn,Conditions,Clouds,dailyrainin,SoftwareType,DateUTC
2013-02-23 00:02:00,3.7,0.0,30.43,SSE,163,1.0,1.0,84,0.00,,,0.00,meteohub,2013-02-23 07:02:00,
2013-02-23 00:07:00,3.6,-0.4,30.43,SSE,163,0.0,1.0,83,0.00,,,0.00,meteohub,2013-02-23 07:07:00,
2013-02-23 00:12:00,3.6,-0.4,30.43,SSE,163,1.0,1.0,83,0.00,,,0.00,meteohub,2013-02-23 07:12:00,
2013-02-23 00:17:00,3.0,-1.3,30.43,SSE,163,1.0,1.0,82,0.00,,,0.00,meteohub,2013-02-23 07:17:00,
2013-02-23 00:22:00,2.7,-1.8,30.43,SSE,163,0.0,1.0,81,0.00,,,0.00,meteohub,2013-02-23 07:22:00,
2013-02-23 00:27:00,2.1,-2.4,30.43,SSE,163,0.0,1.0,81,0.00,,,0.00,meteohub,2013-02-23 07:27:00,
2013-02-23 00:32:00,1.8,-2.7,30.43,SSE,163,0.0,1.0,81,0.00,,,0.00,meteohub,2013-02-23 07:32:00,
2013-02-23 00:37:00,1.6,-2.9,30.43,SSE,163,0.0,1.0,81,0.00,,,0.00,meteohub,2013-02-23 07:37:00,
2013-02-23 00:42:00,1.0,-3.5,30.43,SSE,163,0.0,1.0,81,0.00,,,0.00,meteohub,2013-02-23 07:42:00,
2013-02-23 00:47:00,0.7,-3.8,30.43,SSE,163,1.0,1.0,81,0.00,,,0.00,meteohub,2013-02-23 07:47:00,
2013-02-23 00:52:00,0.3,-4.2,30.43,SSE,163,1.0,1.0,81,0.00,,,0.00,meteohub,2013-02-23 07:52:00,
2013-02-23 00:57:00,0.0,-4.5,30.43,SSE,163,1.0,1.0,81,0.00,,,0.00,meteohub,2013-02-23 07:57:00,
2013-02-23 01:02:00,-0.2,-4.4,30.43,SSE,163,1.0,2.0,82,0.00,,,0.00,meteohub,2013-02-23 08:02:00,
2013-02-23 01:07:00,-0.8,-5.3,30.43,SE,133,1.0,2.0,81,0.00,,,0.00,meteohub,2013-02-23 08:07:00,
2013-02-23 01:12:00,-0.8,-4.2,30.43,ENE,59,2.0,4.0,85,0.00,,,0.00,meteohub,2013-02-23 08:12:00,
2013-02-23 01:17:00,-0.2,-3.8,30.43,ESE,113,1.0,4.0,84,0.00,,,0.00,meteohub,2013-02-23 08:17:00,
2013-02-23 01:22:00,-0.2,-3.6,30.43,SE,126,3.0,4.0,85,0.00,,,0.00,meteohub,2013-02-23 08:22:00,
2013-02-23 01:27:00,0.0,-3.5,30.43,SE,126,1.0,3.0,85,0.00,,,0.00,meteohub,2013-02-23 08:27:00,
2013-02-23 01:32:00,-0.2,-4.2,30.43,NE,42,2.0,3.0,83,0.00,,,0.00,meteohub,2013-02-23 08:32:00,
2013-02-23 01:37:00,0.0,-3.6,30.43,East,99,2.0,3.0,84,0.00,,,0.00,meteohub,2013-02-23 08:37:00,
2013-02-23 01:42:00,0.0,-3.6,30.44,ESE,109,1.0,3.0,84,0.00,,,0.00,meteohub,2013-02-23 08:42:00,
2013-02-23 01:47:00,0.0,-4.0,30.44,ESE,109,1.0,3.0,83,0.00,,,0.00,meteohub,2013-02-23 08:47:00,
2013-02-23 01:52:00,0.1,-3.8,30.44,East,90,1.0,3.0,83,0.00,,,0.00,meteohub,2013-02-23 08:52:00,
2013-02-23 01:57:00,0.1,-3.8,30.44,ESE,115,0.0,3.0,83,0.00,,,0.00,meteohub,2013-02-23 08:57:00,
2013-02-23 02:02:00,0.1,-3.8,30.45,NE,38,2.0,3.0,83,0.00,,,0.00,meteohub,2013-02-23 09:02:00,
2013-02-23 02:07:00,0.1,-3.8,30.45,NE,50,1.0,3.0,83,0.00,,,0.00,meteohub,2013-02-23 09:07:00,
2013-02-23 02:12:00,0.0,-4.2,30.45,NE,51,2.0,3.0,82,0.00,,,0.00,meteohub,2013-02-23 09:12:00,
2013-02-23 02:17:00,0.0,-4.0,30.45,NE,51,0.0,3.0,83,0.00,,,0.00,meteohub,2013-02-23 09:17:00,
2013-02-23 02:22:00,-0.2,-4.7,30.45,NE,51,0.0,3.0,81,0.00,,,0.00,meteohub,2013-02-23 09:22:00,
2013-02-23 02:27:00,-0.6,-5.1,30.44,NE,51,0.0,3.0,81,0.00,,,0.00,meteohub,2013-02-23 09:27:00,
2013-02-23 02:32:00,-0.6,-4.5,30.44,NE,51,0.0,1.0,83,0.00,,,0.00,meteohub,2013-02-23 09:32:00,
2013-02-23 02:37:00,-0.8,-4.9,30.43,NE,51,0.0,1.0,82,0.00,,,0.00,meteohub,2013-02-23 09:37:00,
2013-02-23 02:42:00,-0.6,-4.2,30.44,ESE,118,0.0,2.0,84,0.00,,,0.00,meteohub,2013-02-23 09:42:00,
2013-02-23 02:47:00,-0.6,-4.5,30.44,ESE,118,0.0,3.0,83,0.00,,,0.00,meteohub,2013-02-23 09:47:00,
2013-02-23 02:52:00,-0.6,-4.5,30.44,ESE,118,0.0,3.0,83,0.00,,,0.00,meteohub,2013-02-23 09:52:00,
2013-02-23 02:57:00,-0.6,-4.5,30.45,ESE,118,0.0,3.0,83,0.00,,,0.00,meteohub,2013-02-23 09:57:00,
2013-02-23 03:02:00,-0.8,-4.7,30.45,ESE,118,0.0,1.0,83,0.00,,,0.00,meteohub,2013-02-23 10:02:00,
2013-02-23 03:07:00,-0.8,-4.7,30.45,ESE,118,0.0,1.0,83,0.00,,,0.00,meteohub,2013-02-23 10:07:00,
2013-02-23 03:12:00,-0.8,-4.4,30.45,ESE,118,0.0,1.0,84,0.00,,,0.00,meteohub,2013-02-23 10:12:00,
2013-02-23 03:17:00,-0.6,-4.2,30.46,ESE,118,0.0,1.0,84,0.00,,,0.00,meteohub,2013-02-23 10:17:00,
2013-02-23 03:22:00,-0.6,-4.0,30.45,ESE,118,0.0,1.0,85,0.00,,,0.00,meteohub,2013-02-23 10:22:00,
2013-02-23 03:28:00,-0.2,-3.5,30.45,ESE,118,0.0,1.0,86,0.00,,,0.00,meteohub,2013-02-23 10:28:00,
2013-02-23 03:33:00,0.0,-3.3,30.45,ESE,118,0.0,2.0,86,0.00,,,0.00,meteohub,2013-02-23 10:33:00,
2013-02-23 03:38:00,0.1,-3.3,30.45,ESE,118,0.0,2.0,85,0.00,,,0.00,meteohub,2013-02-23 10:38:00,
2013-02-23 03:43:00,0.5,-2.7,30.44,ESE,118,0.0,1.0,86,0.00,,,0.00,meteohub,2013-02-23 10:43:00,
2013-02-23 03:48:00,0.7,-2.7,30.43,ESE,118,0.0,1.0,85,0.00,,,0.00,meteohub,2013-02-23 10:48:00,
2013-02-23 03:53:00,0.9,-2.4,30.43,ESE,118,0.0,1.0,86,0.00,,,0.00,meteohub,2013-02-23 10:53:00,
2013-02-23 03:58:00,1.0,-2.2,30.43,ESE,118,0.0,1.0,86,0.00,,,0.00,meteohub,2013-02-23 10:58:00,
2013-02-23 04:03:00,1.2,-2.0,30.43,ESE,118,0.0,1.0,86,0.00,,,0.00,meteohub,2013-02-23 11:03:00,
2013-02-23 04:08:00,1.6,-1.7,30.43,ESE,118,1.0,1.0,86,0.00,,,0.00,meteohub,2013-02-23 11:08:00,
2013-02-23 04:13:00,1.8,-1.5,30.43,ESE,118,0.0,2.0,86,0.00,,,0.00,meteohub,2013-02-23 11:13:00,
2013-02-23 04:18:00,1.9,-1.3,30.43,ESE,118,0.0,2.0,86,0.00,,,0.00,meteohub,2013-02-23 11:18:00,
2013-02-23 04:23:00,2.3,-0.9,30.43,ESE,118,0.0,2.0,86,0.00,,,0.00,meteohub,2013-02-23 11:23:00,
2013-02-23 04:28:00,2.7,-0.8,30.43,ESE,118,2.0,2.0,85,0.00,,,0.00,meteohub,2013-02-23 11:28:00,
2013-02-23 04:34:00,2.8,-0.4,30.42,ESE,116,1.0,2.0,86,0.00,,,0.00,meteohub,2013-02-23 11:34:00,
2013-02-23 04:39:00,3.0,-0.2,30.42,ESE,116,0.0,3.0,86,0.00,,,0.00,meteohub,2013-02-23 11:39:00,
2013-02-23 04:44:00,3.2,-0.2,30.41,ESE,116,1.0,3.0,85,0.00,,,0.00,meteohub,2013-02-23 11:44:00,
2013-02-23 04:49:00,3.4,0.1,30.41,East,101,1.0,3.0,86,0.00,,,0.00,meteohub,2013-02-23 11:49:00,
2013-02-23 04:54:00,3.6,0.1,30.41,NE,38,2.0,3.0,85,0.00,,,0.00,meteohub,2013-02-23 11:54:00,
2013-02-23 04:59:00,3.6,0.1,30.41,NE,44,0.0,3.0,85,0.00,,,0.00,meteohub,2013-02-23 11:59:00,
2013-02-23 05:04:00,3.6,-0.2,30.42,NE,44,0.0,2.0,84,0.00,,,0.00,meteohub,2013-02-23 12:04:00,
2013-02-23 05:09:00,3.6,-0.2,30.41,NE,44,0.0,2.0,84,0.00,,,0.00,meteohub,2013-02-23 12:09:00,
2013-02-23 05:14:00,3.6,-0.2,30.41,SE,126,2.0,2.0,84,0.00,,,0.00,meteohub,2013-02-23 12:14:00,
2013-02-23 05:19:00,3.7,0.0,30.40,ESE,119,2.0,2.0,84,0.00,,,0.00,meteohub,2013-02-23 12:19:00,
2013-02-23 05:24:00,3.7,0.0,30.40,ESE,113,2.0,5.0,84,0.00,,,0.00,meteohub,2013-02-23 12:24:00,
2013-02-23 05:29:00,3.7,0.0,30.40,ESE,113,0.0,5.0,84,0.00,,,0.00,meteohub,2013-02-23 12:29:00,
2013-02-23 05:34:00,3.9,0.5,30.40,SE,132,2.0,5.0,85,0.00,,,0.00,meteohub,2013-02-23 12:34:00,
2013-02-23 05:40:00,4.3,0.5,30.40,East,93,2.0,4.0,84,0.00,,,0.00,meteohub,2013-02-23 12:40:00,
2013-02-23 05:45:00,4.5,0.5,30.40,ESE,103,2.0,3.0,83,0.00,,,0.00,meteohub,2013-02-23 12:45:00,
2013-02-23 05:50:00,4.5,0.1,30.40,ESE,116,1.0,3.0,82,0.00,,,0.00,meteohub,2013-02-23 12:50:00,
2013-02-23 05:55:00,4.5,0.0,30.39,SE,124,2.0,4.0,81,0.00,,,0.00,meteohub,2013-02-23 12:55:00,
2013-02-23 06:00:00,4.5,0.0,30.40,ESE,123,3.0,5.0,81,0.00,,,0.00,meteohub,2013-02-23 13:00:00,
2013-02-23 06:05:00,4.3,-0.6,30.39,ESE,117,6.0,6.0,80,0.00,,,0.00,meteohub,2013-02-23 13:05:00,
2013-02-23 06:10:00,3.9,-1.1,30.39,ESE,114,4.0,7.0,79,0.00,,,0.00,meteohub,2013-02-23 13:10:00,
2013-02-23 06:15:00,3.7,-1.3,30.39,ESE,108,2.0,7.0,79,0.00,,,0.00,meteohub,2013-02-23 13:15:00,
2013-02-23 06:20:00,3.6,-1.3,30.38,ESE,119,2.0,7.0,80,0.00,,,0.00,meteohub,2013-02-23 13:20:00,
2013-02-23 06:25:00,3.6,-1.3,30.38,ESE,102,1.0,7.0,80,0.00,,,0.00,meteohub,2013-02-23 13:25:00,
2013-02-23 06:30:00,3.4,-1.5,30.38,East,99,2.0,5.0,80,0.00,,,0.00,meteohub,2013-02-23 13:30:00,
2013-02-23 06:36:00,3.4,-1.5,30.38,East,101,3.0,6.0,80,0.00,,,0.00,meteohub,2013-02-23 13:36:00,
2013-02-23 06:41:00,3.6,-1.3,30.39,SE,130,2.0,6.0,80,0.00,,,0.00,meteohub,2013-02-23 13:41:00,
2013-02-23 06:46:00,3.7,-1.1,30.39,East,101,5.0,6.0,80,0.00,,,0.00,meteohub,2013-02-23 13:46:00,
2013-02-23 06:51:00,3.7,-1.3,30.39,East,83,3.0,6.0,79,0.00,,,0.00,meteohub,2013-02-23 13:51:00,
2013-02-23 06:56:00,3.7,-0.8,30.40,ENE,71,2.0,6.0,81,0.00,,,0.00,meteohub,2013-02-23 13:56:00,
2013-02-23 07:01:00,3.7,-0.8,30.40,ENE,63,2.0,5.0,81,0.00,,,0.00,meteohub,2013-02-23 14:01:00,
2013-02-23 07:06:00,3.7,-0.8,30.40,East,79,1.0,4.0,81,0.00,,,0.00,meteohub,2013-02-23 14:06:00,
2013-02-23 07:11:00,3.7,-0.8,30.40,East,80,1.0,4.0,81,0.00,,,0.00,meteohub,2013-02-23 14:11:00,
2013-02-23 07:16:00,3.6,-1.3,30.40,ENE,64,2.0,4.0,80,0.00,,,0.00,meteohub,2013-02-23 14:16:00,
2013-02-23 07:21:00,3.6,-1.3,30.40,ESE,107,1.0,4.0,80,0.00,,,0.00,meteohub,2013-02-23 14:21:00,
2013-02-23 07:26:00,3.6,-0.9,30.40,East,87,2.0,4.0,81,0.00,,,0.00,meteohub,2013-02-23 14:26:00,
2013-02-23 07:32:00,3.6,-1.3,30.40,ENE,64,1.0,4.0,80,0.00,,,0.00,meteohub,2013-02-23 14:32:00,
2013-02-23 07:37:00,3.6,-0.9,30.40,NE,46,3.0,3.0,81,0.00,,,0.00,meteohub,2013-02-23 14:37:00,
2013-02-23 07:42:00,3.6,-0.8,30.39,ENE,59,1.0,5.0,82,0.00,,,0.00,meteohub,2013-02-23 14:42:00,
2013-02-23 07:47:00,3.6,-0.8,30.39,ENE,59,0.0,6.0,82,0.00,,,0.00,meteohub,2013-02-23 14:47:00,
2013-02-23 07:52:00,3.6,-0.9,30.39,ESE,120,1.0,6.0,81,0.00,,,0.00,meteohub,2013-02-23 14:52:00,
2013-02-23 07:57:00,3.4,-1.1,30.39,ESE,117,1.0,5.0,81,0.00,,,0.00,meteohub,2013-02-23 14:57:00,
2013-02-23 08:02:00,3.4,-0.9,30.39,ESE,117,0.0,3.0,82,0.00,,,0.00,meteohub,2013-02-23 15:02:00,
2013-02-23 08:07:00,3.7,-0.2,30.38,ESE,117,1.0,2.0,83,0.00,,,0.00,meteohub,2013-02-23 15:07:00,
2013-02-23 08:12:00,4.5,0.5,30.38,ESE,117,1.0,2.0,83,0.00,,,0.00,meteohub,2013-02-23 15:12:00,
2013-02-23 08:17:00,4.8,0.5,30.38,ESE,117,1.0,2.0,82,0.00,,,0.00,meteohub,2013-02-23 15:17:00,
2013-02-23 08:22:00,5.4,1.0,30.38,East,94,1.0,2.0,82,0.00,,,0.00,meteohub,2013-02-23 15:22:00,
2013-02-23 08:27:00,5.9,1.4,30.37,East,89,0.0,2.0,81,0.00,,,0.00,meteohub,2013-02-23 15:27:00,
2013-02-23 08:32:00,6.4,1.9,30.37,East,89,1.0,2.0,81,0.00,,,0.00,meteohub,2013-02-23 15:32:00,
2013-02-23 08:37:00,7.3,2.1,30.37,East,90,0.0,2.0,79,0.00,,,0.00,meteohub,2013-02-23 15:37:00,
2013-02-23 08:42:00,8.1,2.8,30.36,East,90,1.0,2.0,79,0.00,,,0.00,meteohub,2013-02-23 15:42:00,
2013-02-23 08:47:00,9.0,3.0,30.36,East,90,0.0,2.0,76,0.00,,,0.00,meteohub,2013-02-23 15:47:00,
2013-02-23 08:52:00,9.7,3.4,30.35,ENE,63,0.0,2.0,75,0.00,,,0.00,meteohub,2013-02-23 15:52:00,
2013-02-23 08:57:00,10.8,4.6,30.35,ENE,76,1.0,2.0,76,0.00,,,0.00,meteohub,2013-02-23 15:57:00,
2013-02-23 09:03:00,11.8,4.6,30.35,ENE,76,1.0,2.0,72,0.00,,,0.00,meteohub,2013-02-23 16:03:00,
2013-02-23 09:08:00,12.9,4.3,30.35,ESE,108,1.0,3.0,68,0.00,,,0.00,meteohub,2013-02-23 16:08:00,
2013-02-23 09:13:00,14.2,5.0,30.34,ESE,108,1.0,3.0,66,0.00,,,0.00,meteohub,2013-02-23 16:13:00,
2013-02-23 09:18:00,15.3,4.6,30.33,ESE,113,1.0,3.0,62,0.00,,,0.00,meteohub,2013-02-23 16:18:00,
2013-02-23 09:23:00,16.0,4.5,30.33,South,177,1.0,3.0,60,0.00,,,0.00,meteohub,2013-02-23 16:23:00,
2013-02-23 09:28:00,16.9,5.4,30.32,West,267,2.0,3.0,60,0.00,,,0.00,meteohub,2013-02-23 16:28:00,
2013-02-23 09:33:00,17.4,5.9,30.32,SW,234,2.0,3.0,60,0.00,,,0.00,meteohub,2013-02-23 16:33:00,
2013-02-23 09:38:00,18.0,6.1,30.32,NNW,344,0.0,3.0,59,0.00,,,0.00,meteohub,2013-02-23 16:38:00,
2013-02-23 09:43:00,18.5,6.6,30.31,North,359,0.0,4.0,59,0.00,,,0.00,meteohub,2013-02-23 16:43:00,
2013-02-23 09:48:00,19.2,6.4,30.31,West,272,1.0,4.0,57,0.00,,,0.00,meteohub,2013-02-23 16:48:00,
2013-02-23 09:53:00,19.9,6.4,30.31,ESE,112,2.0,3.0,55,0.00,,,0.00,meteohub,2013-02-23 16:53:00,
2013-02-23 09:58:00,20.1,6.6,30.30,SE,126,0.0,4.0,55,0.00,,,0.00,meteohub,2013-02-23 16:58:00,
2013-02-23 10:04:00,20.8,6.8,30.30,NNE,14,0.0,4.0,54,0.00,,,0.00,meteohub,2013-02-23 17:04:00,
2013-02-23 10:09:00,21.6,7.2,30.30,SSE,156,1.0,4.0,53,0.00,,,0.00,meteohub,2013-02-23 17:09:00,
2013-02-23 10:14:00,22.5,7.5,30.29,SE,142,1.0,4.0,52,0.00,,,0.00,meteohub,2013-02-23 17:14:00,
2013-02-23 10:19:00,23.4,8.8,30.28,NE,36,0.0,4.0,53,0.00,,,0.00,meteohub,2013-02-23 17:19:00,
2013-02-23 10:24:00,24.1,8.1,30.28,West,269,2.0,4.0,50,0.00,,,0.00,meteohub,2013-02-23 17:24:00,
2013-02-23 10:29:00,24.6,7.7,30.28,WSW,240,2.0,4.0,48,0.00,,,0.00,meteohub,2013-02-23 17:29:00,
2013-02-23 10:34:00,25.3,8.4,30.28,West,272,2.0,4.0,48,0.00,,,0.00,meteohub,2013-02-23 17:34:00,
2013-02-23 10:39:00,25.9,8.4,30.27,WSW,251,1.0,4.0,47,0.00,,,0.00,meteohub,2013-02-23 17:39:00,
2013-02-23 10:44:00,26.4,8.4,30.27,WSW,243,2.0,7.0,46,0.00,,,0.00,meteohub,2013-02-23 17:44:00,
2013-02-23 10:49:00,26.2,7.7,30.27,WSW,244,3.0,7.0,45,0.00,,,0.00,meteohub,2013-02-23 17:49:00,
2013-02-23 10:54:00,25.5,7.7,30.27,WSW,241,2.0,7.0,46,0.00,,,0.00,meteohub,2013-02-23 17:54:00,
2013-02-23 10:59:00,25.3,8.4,30.27,WSW,252,3.0,7.0,48,0.00,,,0.00,meteohub,2013-02-23 17:59:00,
2013-02-23 11:04:00,26.1,9.5,30.26,WNW,299,1.0,7.0,49,0.00,,,0.00,meteohub,2013-02-23 18:04:00,
2013-02-23 11:09:00,26.8,9.7,30.26,NNW,330,3.0,9.0,48,0.00,,,0.00,meteohub,2013-02-23 18:09:00,
2013-02-23 11:14:00,27.5,10.4,30.26,NW,319,5.0,9.0,48,0.00,,,0.00,meteohub,2013-02-23 18:14:00,
2013-02-23 11:20:00,27.9,10.8,30.26,NNW,330,5.0,10.0,48,0.00,,,0.00,meteohub,2013-02-23 18:20:00,
2013-02-23 11:25:00,28.0,10.4,30.25,WSW,247,1.0,11.0,47,0.00,,,0.00,meteohub,2013-02-23 18:25:00,
2013-02-23 11:30:00,28.0,10.9,30.25,SW,228,4.0,11.0,48,0.00,,,0.00,meteohub,2013-02-23 18:30:00,
2013-02-23 11:35:00,27.9,11.7,30.25,WSW,247,4.0,11.0,50,0.00,,,0.00,meteohub,2013-02-23 18:35:00,
2013-02-23 11:40:00,28.0,13.1,30.24,West,264,7.0,9.0,53,0.00,,,0.00,meteohub,2013-02-23 18:40:00,
2013-02-23 11:45:00,28.9,13.1,30.23,NNW,329,4.0,9.0,51,0.00,,,0.00,meteohub,2013-02-23 18:45:00,
2013-02-23 11:50:00,29.7,14.2,30.23,NNW,342,6.0,11.0,52,0.00,,,0.00,meteohub,2013-02-23 18:50:00,
2013-02-23 11:55:00,29.7,13.3,30.23,WNW,300,7.0,11.0,50,0.00,,,0.00,meteohub,2013-02-23 18:55:00,
2013-02-23 12:00:00,29.7,13.8,30.22,West,277,1.0,10.0,51,0.00,,,0.00,meteohub,2013-02-23 19:00:00,
2013-02-23 12:05:00,29.8,14.0,30.22,WNW,294,4.0,10.0,51,0.00,,,0.00,meteohub,2013-02-23 19:05:00,
2013-02-23 12:10:00,29.7,14.2,30.21,NW,308,6.0,9.0,52,0.00,,,0.00,meteohub,2013-02-23 19:10:00,
2013-02-23 12:15:00,30.6,15.4,30.20,West,264,1.0,9.0,53,0.00,,,0.00,meteohub,2013-02-23 19:15:00,
2013-02-23 12:20:00,31.1,15.1,30.19,NW,315,5.0,9.0,51,0.00,,,0.00,meteohub,2013-02-23 19:20:00,
2013-02-23 12:26:00,31.5,15.4,30.19,NNE,26,1.0,7.0,51,0.00,,,0.00,meteohub,2013-02-23 19:26:00,
2013-02-23 12:31:00,31.8,14.9,30.18,SSW,211,1.0,5.0,49,0.00,,,0.00,meteohub,2013-02-23 19:31:00,
2013-02-23 12:36:00,31.6,14.2,30.18,SW,216,5.0,8.0,48,0.00,,,0.00,meteohub,2013-02-23 19:36:00,
2013-02-23 12:41:00,31.5,14.9,30.17,WSW,237,2.0,8.0,50,0.00,,,0.00,meteohub,2013-02-23 19:41:00,
2013-02-23 12:46:00,31.8,15.3,30.17,South,190,4.0,8.0,50,0.00,,,0.00,meteohub,2013-02-23 19:46:00,
2013-02-23 12:51:00,32.5,14.5,30.16,West,280,3.0,7.0,47,0.00,,,0.00,meteohub,2013-02-23 19:51:00,
2013-02-23 12:56:00,32.4,14.9,30.16,WSW,246,2.0,11.0,48,0.00,,,0.00,meteohub,2013-02-23 19:56:00,
2013-02-23 13:01:00,32.4,14.4,30.15,WNW,298,5.0,11.0,47,0.00,,,0.00,meteohub,2013-02-23 20:01:00,
2013-02-23 13:06:00,32.5,15.1,30.15,WNW,301,6.0,12.0,48,0.00,,,0.00,meteohub,2013-02-23 20:06:00,
2013-02-23 13:11:00,32.7,14.7,30.14,SSW,201,2.0,12.0,47,0.00,,,0.00,meteohub,2013-02-23 20:11:00,
2013-02-23 13:16:00,32.5,15.1,30.14,WNW,291,7.0,12.0,48,0.00,,,0.00,meteohub,2013-02-23 20:16:00,
2013-02-23 13:21:00,32.5,15.1,30.13,NW,315,6.0,12.0,48,0.00,,,0.00,meteohub,2013-02-23 20:21:00,
2013-02-23 13:26:00,32.4,15.3,30.13,NNW,339,2.0,12.0,49,0.00,,,0.00,meteohub,2013-02-23 20:26:00,
2013-02-23 13:31:00,32.4,15.8,30.12,WNW,282,1.0,12.0,50,0.00,,,0.00,meteohub,2013-02-23 20:31:00,
2013-02-23 13:37:00,32.2,15.6,30.12,WNW,282,7.0,12.0,50,0.00,,,0.00,meteohub,2013-02-23 20:37:00,
2013-02-23 13:42:00,31.8,15.8,30.12,West,280,4.0,13.0,51,0.00,,,0.00,meteohub,2013-02-23 20:42:00,
2013-02-23 13:47:00,31.6,16.5,30.12,WNW,293,7.0,13.0,53,0.00,,,0.00,meteohub,2013-02-23 20:47:00,
2013-02-23 13:52:00,31.5,16.3,30.11,NW,309,3.0,13.0,53,0.00,,,0.00,meteohub,2013-02-23 20:52:00,
2013-02-23 13:57:00,31.3,16.5,30.11,WNW,292,10.0,12.0,54,0.00,,,0.00,meteohub,2013-02-23 20:57:00,
2013-02-23 14:02:00,30.9,17.4,30.11,NW,321,4.0,12.0,57,0.00,,,0.00,meteohub,2013-02-23 21:02:00,
2013-02-23 14:07:00,30.9,17.1,30.11,SW,217,5.0,11.0,56,0.00,,,0.00,meteohub,2013-02-23 21:07:00,
2013-02-23 14:12:00,30.9,17.1,30.11,WNW,290,3.0,11.0,56,0.00,,,0.00,meteohub,2013-02-23 21:12:00,
2013-02-23 14:17:00,30.4,17.4,30.11,West,275,7.0,9.0,58,0.00,,,0.00,meteohub,2013-02-23 21:17:00,
2013-02-23 14:22:00,30.0,18.1,30.10,NNW,327,1.0,9.0,61,0.00,,,0.00,meteohub,2013-02-23 21:22:00,
2013-02-23 14:27:00,30.0,18.1,30.10,NW,318,5.0,9.0,61,0.00,,,0.00,meteohub,2013-02-23 21:27:00,
2013-02-23 14:32:00,29.8,18.9,30.10,West,276,0.0,8.0,63,0.00,,,0.00,meteohub,2013-02-23 21:32:00,
2013-02-23 14:37:00,29.8,18.5,30.10,WNW,292,4.0,8.0,62,0.00,,,0.00,meteohub,2013-02-23 21:37:00,
2013-02-23 14:42:00,29.8,18.5,30.09,NNW,330,0.0,7.0,62,0.00,,,0.00,meteohub,2013-02-23 21:42:00,
2013-02-23 14:47:00,29.5,17.8,30.09,WNW,284,0.0,9.0,61,0.00,,,0.00,meteohub,2013-02-23 21:47:00,
2013-02-23 14:52:00,29.3,17.6,30.09,WNW,294,1.0,9.0,61,0.00,,,0.00,meteohub,2013-02-23 21:52:00,
2013-02-23 14:57:00,29.3,18.0,30.09,WNW,289,4.0,9.0,62,0.00,,,0.00,meteohub,2013-02-23 21:57:00,
2013-02-23 15:02:00,29.1,18.1,30.09,NW,304,1.0,9.0,63,0.00,,,0.00,meteohub,2013-02-23 22:02:00,
2013-02-23 15:07:00,29.1,18.5,30.09,West,266,7.0,9.0,64,0.00,,,0.00,meteohub,2013-02-23 22:07:00,
2013-02-23 15:12:00,28.9,18.3,30.09,SSW,211,5.0,9.0,64,0.00,,,0.00,meteohub,2013-02-23 22:12:00,
2013-02-23 15:17:00,28.8,18.9,30.09,SSW,213,2.0,9.0,66,0.00,,,0.00,meteohub,2013-02-23 22:17:00,
2013-02-23 15:22:00,28.4,18.5,30.09,WSW,246,2.0,9.0,66,0.00,,,0.00,meteohub,2013-02-23 22:22:00,
2013-02-23 15:27:00,28.2,18.7,30.09,WSW,251,0.0,7.0,67,0.00,,,0.00,meteohub,2013-02-23 22:27:00,
2013-02-23 15:32:00,28.2,18.7,30.09,West,269,0.0,7.0,67,0.00,,,0.00,meteohub,2013-02-23 22:32:00,
2013-02-23 15:37:00,28.2,19.0,30.09,SW,236,1.0,7.0,68,0.00,,,0.00,meteohub,2013-02-23 22:37:00,
2013-02-23 15:42:00,28.0,20.1,30.09,West,278,1.0,7.0,72,0.00,,,0.00,meteohub,2013-02-23 22:42:00,
2013-02-23 15:47:00,27.7,20.5,30.09,West,269,1.0,7.0,74,0.00,,,0.00,meteohub,2013-02-23 22:47:00,
2013-02-23 15:52:00,27.7,21.0,30.09,WNW,295,2.0,7.0,76,0.00,,,0.00,meteohub,2013-02-23 22:52:00,
2013-02-23 15:57:00,27.9,21.2,30.08,West,275,1.0,5.0,76,0.00,,,0.00,meteohub,2013-02-23 22:57:00,
2013-02-23 16:02:00,28.0,20.8,30.07,West,261,2.0,3.0,74,0.00,,,0.00,meteohub,2013-02-23 23:02:00,
2013-02-23 16:07:00,28.0,20.5,30.05,ESE,123,3.0,3.0,73,0.00,,,0.00,meteohub,2013-02-23 23:07:00,
2013-02-23 16:12:00,27.9,20.3,30.05,ESE,123,0.0,4.0,73,0.00,,,0.00,meteohub,2013-02-23 23:12:00,
2013-02-23 16:17:00,28.2,19.8,30.05,SSW,202,2.0,4.0,70,0.00,,,0.00,meteohub,2013-02-23 23:17:00,
2013-02-23 16:22:00,28.4,18.9,30.04,SSW,202,0.0,4.0,67,0.00,,,0.00,meteohub,2013-02-23 23:22:00,
2013-02-23 16:27:00,28.4,19.2,30.04,SSW,202,1.0,3.0,68,0.00,,,0.00,meteohub,2013-02-23 23:27:00,
2013-02-23 16:32:00,28.0,18.5,30.03,SSW,202,2.0,3.0,67,0.00,,,0.00,meteohub,2013-02-23 23:32:00,
2013-02-23 16:37:00,27.9,18.7,30.04,SSW,202,0.0,2.0,68,0.00,,,0.00,meteohub,2013-02-23 23:37:00,
2013-02-23 16:42:00,27.9,19.0,30.03,SSW,202,0.0,2.0,69,0.00,,,0.00,meteohub,2013-02-23 23:42:00,
2013-02-23 16:47:00,27.9,19.0,30.02,NW,313,0.0,2.0,69,0.00,,,0.00,meteohub,2013-02-23 23:47:00,
2013-02-23 16:52:00,27.9,19.0,30.02,NW,313,0.0,2.0,69,0.00,,,0.00,meteohub,2013-02-23 23:52:00,
2013-02-23 16:57:00,27.7,19.2,30.02,WSW,244,3.0,3.0,70,0.00,,,0.00,meteohub,2013-02-23 23:57:00,
2013-02-23 17:03:00,27.3,19.8,30.03,West,267,2.0,2.0,73,0.00,,,0.00,meteohub,2013-02-24 00:03:00,
2013-02-23 17:08:00,26.8,19.6,30.02,West,270,1.0,5.0,74,0.00,,,0.00,meteohub,2013-02-24 00:08:00,
2013-02-23 17:13:00,26.6,19.8,30.01,West,270,0.0,5.0,75,0.00,,,0.00,meteohub,2013-02-24 00:13:00,
2013-02-23 17:18:00,26.4,19.6,30.01,West,270,2.0,5.0,75,0.00,,,0.00,meteohub,2013-02-24 00:18:00,
2013-02-23 17:23:00,26.1,19.2,30.01,West,265,3.0,3.0,75,0.00,,,0.00,meteohub,2013-02-24 00:23:00,
2013-02-23 17:28:00,25.7,19.2,30.02,WSW,243,5.0,5.0,76,0.00,,,0.00,meteohub,2013-02-24 00:28:00,
2013-02-23 17:33:00,25.2,19.0,30.03,WSW,248,4.0,7.0,77,0.00,,,0.00,meteohub,2013-02-24 00:33:00,
2013-02-23 17:38:00,24.8,18.9,30.04,WSW,251,4.0,7.0,78,0.00,,,0.00,meteohub,2013-02-24 00:38:00,
2013-02-23 17:43:00,24.6,19.0,30.04,West,280,3.0,7.0,79,0.00,,,0.00,meteohub,2013-02-24 00:43:00,
2013-02-23 17:48:00,24.4,19.9,30.04,WSW,256,0.0,9.0,83,0.00,,,0.00,meteohub,2013-02-24 00:48:00,
2013-02-23 17:54:00,24.3,20.1,30.05,SW,226,3.0,9.0,84,0.00,,,0.00,meteohub,2013-02-24 00:54:00,
2013-02-23 17:59:00,23.9,20.1,30.05,WSW,257,1.0,7.0,85,0.00,,,0.00,meteohub,2013-02-24 00:59:00,
2013-02-23 18:04:00,23.7,20.1,30.05,West,265,3.0,7.0,86,0.00,,,0.00,meteohub,2013-02-24 01:04:00,
2013-02-23 18:09:00,23.5,20.3,30.05,SW,230,3.0,7.0,87,0.00,,,0.00,meteohub,2013-02-24 01:09:00,
2013-02-23 18:14:00,23.4,20.1,30.04,WSW,257,1.0,6.0,87,0.00,,,0.00,meteohub,2013-02-24 01:14:00,
2013-02-23 18:19:00,23.4,20.1,30.05,WSW,257,0.0,6.0,87,0.00,,,0.00,meteohub,2013-02-24 01:19:00,
2013-02-23 18:24:00,23.2,20.1,30.04,WSW,257,0.0,5.0,88,0.00,,,0.00,meteohub,2013-02-24 01:24:00,
2013-02-23 18:29:00,23.2,20.1,30.04,WSW,257,0.0,4.0,88,0.00,,,0.00,meteohub,2013-02-24 01:29:00,
2013-02-23 18:34:00,23.2,20.1,30.04,WSW,257,1.0,2.0,88,0.00,,,0.00,meteohub,2013-02-24 01:34:00,
2013-02-23 18:39:00,23.2,20.1,30.04,WSW,257,1.0,2.0,88,0.00,,,0.00,meteohub,2013-02-24 01:39:00,
2013-02-23 18:44:00,22.8,19.8,30.04,WSW,257,1.0,2.0,88,0.00,,,0.00,meteohub,2013-02-24 01:44:00,
2013-02-23 18:49:00,22.8,19.8,30.04,WSW,257,1.0,2.0,88,0.00,,,0.00,meteohub,2013-02-24 01:49:00,
2013-02-23 18:54:00,22.6,19.6,30.03,WNW,287,1.0,3.0,88,0.00,,,0.00,meteohub,2013-02-24 01:54:00,
2013-02-23 19:00:00,22.5,19.8,30.03,WNW,287,0.0,3.0,89,0.00,,,0.00,meteohub,2013-02-24 02:00:00,
2013-02-23 19:05:00,22.5,19.8,30.03,WSW,245,2.0,3.0,89,0.00,,,0.00,meteohub,2013-02-24 02:05:00,
2013-02-23 19:10:00,22.3,19.6,30.03,WSW,244,2.0,3.0,89,0.00,,,0.00,meteohub,2013-02-24 02:10:00,
2013-02-23 19:15:00,21.9,19.2,30.03,SW,234,2.0,4.0,89,0.00,,,0.00,meteohub,2013-02-24 02:15:00,
2013-02-23 19:20:00,21.6,18.9,30.02,SW,227,1.0,5.0,89,0.00,,,0.00,meteohub,2013-02-24 02:20:00,
2013-02-23 19:25:00,21.6,19.0,30.02,WNW,284,2.0,5.0,90,0.00,,,0.00,meteohub,2013-02-24 02:25:00,
2013-02-23 19:30:00,21.4,18.9,30.02,West,277,1.0,5.0,90,0.00,,,0.00,meteohub,2013-02-24 02:30:00,
2013-02-23 19:35:00,21.4,18.9,30.02,SW,221,4.0,4.0,90,0.00,,,0.00,meteohub,2013-02-24 02:35:00,
2013-02-23 19:40:00,21.2,18.7,30.01,WSW,248,2.0,6.0,90,0.00,,,0.00,meteohub,2013-02-24 02:40:00,
2013-02-23 19:45:00,21.0,18.5,30.01,SW,226,3.0,6.0,90,0.00,,,0.00,meteohub,2013-02-24 02:45:00,
2013-02-23 19:50:00,20.8,18.1,30.02,West,261,2.0,7.0,89,0.00,,,0.00,meteohub,2013-02-24 02:50:00,
2013-02-23 19:55:00,20.5,17.8,30.03,SW,221,3.0,9.0,89,0.00,,,0.00,meteohub,2013-02-24 02:55:00,
2013-02-23 20:01:00,20.1,17.4,30.03,SW,228,2.0,9.0,89,0.00,,,0.00,meteohub,2013-02-24 03:01:00,
2013-02-23 20:06:00,20.1,17.6,30.03,SW,217,4.0,9.0,90,0.00,,,0.00,meteohub,2013-02-24 03:06:00,
2013-02-23 20:11:00,19.9,17.4,30.03,SSW,210,6.0,8.0,90,0.00,,,0.00,meteohub,2013-02-24 03:11:00,
2013-02-23 20:16:00,19.9,17.4,30.04,SSW,207,6.0,9.0,90,0.00,,,0.00,meteohub,2013-02-24 03:16:00,
2013-02-23 20:21:00,19.9,17.4,30.04,WSW,242,3.0,9.0,90,0.00,,,0.00,meteohub,2013-02-24 03:21:00,
2013-02-23 20:26:00,19.8,17.2,30.04,SW,228,6.0,9.0,90,0.00,,,0.00,meteohub,2013-02-24 03:26:00,
2013-02-23 20:31:00,19.8,17.2,30.04,SW,226,3.0,8.0,90,0.00,,,0.00,meteohub,2013-02-24 03:31:00,
2013-02-23 20:36:00,19.8,17.6,30.05,SSW,193,3.0,8.0,91,0.00,,,0.00,meteohub,2013-02-24 03:36:00,
2013-02-23 20:41:00,19.8,17.6,30.05,SW,214,1.0,8.0,91,0.00,,,0.00,meteohub,2013-02-24 03:41:00,
2013-02-23 20:46:00,19.6,17.4,30.05,SW,228,3.0,6.0,91,0.00,,,0.00,meteohub,2013-02-24 03:46:00,
2013-02-23 20:51:00,19.8,17.6,30.05,WSW,237,4.0,6.0,91,0.00,,,0.00,meteohub,2013-02-24 03:51:00,
2013-02-23 20:57:00,19.6,17.4,30.05,SW,218,2.0,6.0,91,0.00,,,0.00,meteohub,2013-02-24 03:57:00,
2013-02-23 21:02:00,19.8,17.6,30.05,SW,219,3.0,5.0,91,0.00,,,0.00,meteohub,2013-02-24 04:02:00,
2013-02-23 21:07:00,19.8,17.6,30.05,SSW,212,2.0,5.0,91,0.00,,,0.00,meteohub,2013-02-24 04:07:00,
2013-02-23 21:12:00,19.6,17.4,30.05,SW,229,2.0,5.0,91,0.00,,,0.00,meteohub,2013-02-24 04:12:00,
2013-02-23 21:17:00,19.6,17.4,30.05,WSW,238,2.0,6.0,91,0.00,,,0.00,meteohub,2013-02-24 04:17:00,
2013-02-23 21:22:00,19.6,17.4,30.05,West,265,3.0,6.0,91,0.00,,,0.00,meteohub,2013-02-24 04:22:00,
2013-02-23 21:27:00,19.6,17.1,30.04,West,267,1.0,6.0,90,0.00,,,0.00,meteohub,2013-02-24 04:27:00,
2013-02-23 21:32:00,19.6,17.1,30.04,West,259,1.0,5.0,90,0.00,,,0.00,meteohub,2013-02-24 04:32:00,
2013-02-23 21:37:00,19.4,16.9,30.03,WSW,239,0.0,5.0,90,0.00,,,0.00,meteohub,2013-02-24 04:37:00,
2013-02-23 21:42:00,19.4,16.9,30.02,WSW,239,0.0,3.0,90,0.00,,,0.00,meteohub,2013-02-24 04:42:00,
2013-02-23 21:47:00,19.2,16.5,30.02,West,263,1.0,2.0,89,0.00,,,0.00,meteohub,2013-02-24 04:47:00,
2013-02-23 21:52:00,19.0,16.3,30.03,WSW,255,1.0,3.0,89,0.00,,,0.00,meteohub,2013-02-24 04:52:00,
2013-02-23 21:57:00,18.9,16.3,30.02,WNW,289,1.0,4.0,90,0.00,,,0.00,meteohub,2013-02-24 04:57:00,
2013-02-23 22:00:00,18.7,16.2,30.02,NW,318,2.0,4.0,90,0.00,,,0.00,meteohub,2013-02-24 05:00:00,
2013-02-23 22:01:00,18.7,16.0,30.02,NW,325,2.0,4.0,89,0.00,,,0.00,meteohub,2013-02-24 05:01:00,
2013-02-23 22:02:00,18.7,16.0,30.02,NW,325,1.0,4.0,89,0.00,,,0.00,meteohub,2013-02-24 05:02:00,
2013-02-23 22:07:00,18.3,15.6,30.02,WSW,237,1.0,4.0,89,0.00,,,0.00,meteohub,2013-02-24 05:07:00,
2013-02-23 22:12:00,18.1,15.6,30.01,WSW,242,4.0,5.0,90,0.00,,,0.00,meteohub,2013-02-24 05:12:00,
2013-02-23 22:17:00,18.1,15.6,30.01,SSW,210,2.0,5.0,90,0.00,,,0.00,meteohub,2013-02-24 05:17:00,
2013-02-23 22:22:00,18.1,15.6,30.01,SSW,211,0.0,5.0,90,0.00,,,0.00,meteohub,2013-02-24 05:22:00,
2013-02-23 22:27:00,18.0,15.4,30.01,SSW,211,1.0,5.0,90,0.00,,,0.00,meteohub,2013-02-24 05:27:00,
2013-02-23 22:32:00,18.0,15.4,30.02,SW,219,4.0,4.0,90,0.00,,,0.00,meteohub,2013-02-24 05:32:00,
2013-02-23 22:37:00,18.0,15.4,30.02,WNW,290,2.0,4.0,90,0.00,,,0.00,meteohub,2013-02-24 05:37:00,
2013-02-23 22:42:00,18.0,15.4,30.02,WSW,245,3.0,5.0,90,0.00,,,0.00,meteohub,2013-02-24 05:42:00,
2013-02-23 22:47:00,18.0,15.4,30.03,SW,235,2.0,7.0,90,0.00,,,0.00,meteohub,2013-02-24 05:47:00,
2013-02-23 22:52:00,18.0,15.4,29.99,ENE,57,2.0,7.0,90,0.00,,,0.00,meteohub,2013-02-24 05:52:00,
2013-02-23 22:57:00,18.0,15.4,30.01,SE,144,0.0,7.0,90,0.00,,,0.00,meteohub,2013-02-24 05:57:00,
2013-02-23 23:02:00,18.0,15.4,30.01,SE,144,0.0,6.0,90,0.00,,,0.00,meteohub,2013-02-24 06:02:00,
2013-02-23 23:07:00,18.0,15.4,30.01,SE,144,0.0,3.0,90,0.00,,,0.00,meteohub,2013-02-24 06:07:00,
2013-02-23 23:12:00,18.0,15.4,29.99,ESE,115,1.0,2.0,90,0.00,,,0.00,meteohub,2013-02-24 06:12:00,
2013-02-23 23:17:00,18.0,15.4,30.00,ESE,115,1.0,2.0,90,0.00,,,0.00,meteohub,2013-02-24 06:17:00,
2013-02-23 23:22:00,17.6,14.9,30.00,West,280,1.0,2.0,89,0.00,,,0.00,meteohub,2013-02-24 06:22:00,
2013-02-23 23:27:00,17.4,15.1,29.99,SW,230,0.0,4.0,90,0.00,,,0.00,meteohub,2013-02-24 06:27:00,
2013-02-23 23:32:00,17.4,15.1,30.00,SW,230,1.0,4.0,90,0.00,,,0.00,meteohub,2013-02-24 06:32:00,
2013-02-23 23:37:00,17.2,14.9,30.01,WSW,244,2.0,4.0,90,0.00,,,0.00,meteohub,2013-02-24 06:37:00,
2013-02-23 23:42:00,17.2,14.9,30.00,West,275,1.0,5.0,90,0.00,,,0.00,meteohub,2013-02-24 06:42:00,
2013-02-23 23:47:00,17.2,14.9,30.00,West,275,0.0,5.0,90,0.00,,,0.00,meteohub,2013-02-24 06:47:00,
2013-02-23 23:52:00,17.2,14.5,30.00,SW,236,3.0,5.0,89,0.00,,,0.00,meteohub,2013-02-24 06:52:00,
2013-02-23 23:57:00,17.1,14.4,29.99,NNW,336,1.0,4.0,89,0.00,,,0.00,meteohub,2013-02-24 06:57:00,